Startseite
Über Mich
AHP4
Galerie
Sehschlangen
Tourenbuch
Bookmarks
Elektronik
Bewertung
Geschichten
[Tagesmessung] [Jahreswerte] [Information]

Messwerte vom 10.03.2022

Die letzten Messwerte von 23:58:46 Uhr:
KategorieMesswert
Temperatur [°C]1
Luftdruck [mBar]1010
Sonneneinstrahlung0
Wind [km/h]1 aus West
Niederschlag [l/m²]0
rel.Luftfeucht.65%
CO2 [ppm]755

Diagramme
Messwerte vom 10.03.2022
Tagesaggregation
KategorieMinimumMaximumSchnittSumme
Temperatur [°C]-3164.6750
Luftdruck [mBar]101010131011.6292
Sonneneinstrahlung24699.6063
Wind [km/h]11
rF [%]34.283.465.09
Niederschlag [l/m²]0
CO2 [ppm]404826708.8
Einordnung alsFrosttag
Vegetationstag

Messungen an benachbarten Tagen: Zur Jahresaggregation 2022
Tabelle aller Messwerte
UhrzeitTemperatur [°C]Luftdruck [mBar]SonneWind [km/h]RichtungRegen [l/m²]rF [%]CO2 [ppm]
00:01:46 -1 1010 0 0 NO 0 77.1 715
00:04:48 -1 1010 0 0 NO 0 77.4 708
00:07:46 -1 1010 0 0 NO 0 77.7 703
00:10:48 -1 1010 0 0 SW 0 78.2 702
00:13:46 -1 1010 0 0 O 0 78.2 709
00:16:46 -1 1010 0 0 O 0 78.3 712
00:19:48 -1 1010 0 0 O 0 78.8 706
00:22:48 -1 1010 0 0 O 0 78.6 701
00:25:45 -2 1010 0 0 O 0 78.6 705
00:28:45 -2 1011 0 0 O 0 78.7 707
00:31:48 -1 1010 0 0 O 0 79.2 710
00:34:47 -1 1010 0 0 O 0 79.4 703
00:37:46 -1 1010 0 0 O 0 79.8 702
00:40:47 -1 1011 0 0 O 0 79.5 700
00:43:46 -1 1010 0 0 O 0 78.9 700
00:46:48 -1 1011 0 0 O 0 78.5 710
00:49:46 -1 1010 0 0 S 0 78.4 705
00:52:46 -1 1011 0 0 S 0 78.3 700
00:55:47 -2 1011 0 0 S 0 78.4 697
00:58:45 -2 1011 0 0 S 0 78.9 694
01:01:46 -2 1010 0 0 S 0 79.5 691
01:04:46 -2 1010 0 0 S 0 79.6 684
01:07:46 -2 1011 0 0 S 0 79.5 697
01:10:49 -2 1011 0 0 S 0 79.4 694
01:13:47 -2 1012 0 0 S 0 79.6 697
01:16:50 -1 1011 0 0 S 0 80 686
01:19:46 -1 1011 0 0 S 0 80.1 688
01:22:47 -1 1011 0 0 S 0 79.5 679
01:25:45 -2 1011 0 0 S 0 79.4 686
01:28:47 -2 1011 0 0 S 0 79.3 683
01:31:47 -2 1012 0 0 S 0 79.3 691
01:34:48 -2 1012 0 0 S 0 79.4 692
01:37:45 -2 1012 0 0 O 0 79.4 700
01:40:49 -2 1010 0 0 NW 0 79.8 696
01:43:50 -2 1011 0 0 NW 0 80.9 693
01:46:48 -2 1012 0 0 NW 0 81.1 699
01:49:46 -2 1011 0 0 NW 0 81.3 701
01:52:48 -2 1011 0 0 NW 0 81.3 703
01:55:47 -2 1011 0 0 NW 0 81.3 688
01:58:47 -2 1011 0 0 NW 0 81.6 692
02:01:48 -2 1010 0 0 NW 0 81.6 691
02:04:47 -2 1011 0 0 NW 0 81.5 697
02:07:49 -2 1011 0 0 NW 0 81.6 692
02:10:47 -2 1011 0 0 NW 0 81.6 693
02:13:47 -2 1012 0 0 NW 0 81.7 700
02:16:48 -2 1011 0 0 NW 0 81.6 697
02:19:50 -3 1011 0 0 NW 0 81.7 680
02:22:48 -3 1012 0 0 NW 0 81.8 677
02:25:48 -2 1011 0 0 NW 0 82.1 683
02:28:49 -2 1011 0 0 NW 0 82.4 683
02:31:49 -2 1011 0 0 NW 0 82.4 680
02:34:51 -2 1012 0 0 NW 0 82.1 680
02:37:48 -2 1011 0 0 NW 0 82.4 686
02:40:50 -2 1011 0 0 NW 0 83 696
02:43:49 -2 1012 0 0 NW 0 82.1 688
02:46:46 -2 1012 0 0 O 0 81.8 680
02:49:49 -2 1012 0 0 S 0 82.8 677
02:52:46 -1 1011 0 0 S 0 82.8 679
02:55:46 -1 1011 0 0 S 0 82.1 682
02:58:45 -1 1011 0 0 S 0 81.2 682
03:01:48 -1 1012 0 0 S 0 80 674
03:04:47 -1 1012 0 0 NO 0 79.7 673
03:07:47 -2 1012 0 0 NO 0 79.8 671
03:10:46 -1 1012 0 0 NO 0 79.9 674
03:13:48 -1 1012 0 0 NO 0 80.8 677
03:16:48 -1 1011 0 0 NO 0 80.3 679
03:19:48 -1 1011 0 0 SO 0 80.1 674
03:22:46 -1 1011 0 0 NO 0 79.9 674
03:25:49 -2 1011 0 0 NO 0 80.2 679
03:28:48 -2 1012 0 0 NO 0 80 682
03:31:49 -2 1011 0 0 NO 0 80.2 682
03:34:47 -2 1012 0 0 NO 0 81.1 682
03:37:48 -2 1012 0 0 O 0 81 679
03:40:46 -2 1011 0 0 O 0 81.2 679
03:43:47 -2 1012 0 0 O 0 81.6 677
03:46:45 -2 1012 0 0 O 0 83 677
03:49:46 -1 1011 0 0 O 0 83.1 695
03:52:46 -1 1012 0 0 O 0 82.8 686
03:55:47 -1 1012 0 0 NO 0 82.6 687
03:58:46 -1 1012 0 0 S 0 82.4 679
04:01:47 -1 1011 0 0 S 0 81.8 677
04:04:45 -1 1012 0 0 S 0 81.5 677
04:07:47 -1 1011 0 0 S 0 81.2 682
04:10:45 -1 1011 0 0 S 0 81 672
04:13:47 -2 1010 0 0 S 0 80.6 671
04:16:46 -2 1010 0 0 NO 0 79.9 669
04:19:46 -2 1011 0 0 O 0 79.9 668
04:22:48 -2 1011 0 0 NO 0 80.7 671
04:25:47 -2 1012 0 0 O 0 82 679
04:28:49 -2 1012 0 0 N 0 83.2 682
04:31:46 -1 1011 0 0 NO 0 83.4 676
04:34:46 -1 1011 0 0 NO 0 82.4 676
04:37:44 -1 1011 0 0 O 0 81.9 679
04:40:49 0 1011 0 0 NO 0 81.1 682
04:43:45 0 1011 0 0 N 0 80.3 678
04:46:49 0 1011 0 0 NO 0 79.3 679
04:49:45 0 1012 0 0 N 0 79.1 674
04:52:46 0 1011 0 0 N 0 78.4 674
04:55:45 0 1012 0 0 O 0 78.1 682
04:58:46 0 1011 0 0 SO 0 77.8 685
05:01:47 0 1012 0 0 NO 0 77.6 695
05:04:47 0 1012 0 0 O 0 77.4 692
05:07:47 0 1012 0 0 W 0 77.4 685
05:10:45 0 1011 0 0 O 0 77.2 667
05:13:45 0 1011 0 0 N 0 77.3 677
05:16:45 0 1012 0 0 N 0 77.5 683
05:19:46 0 1012 0 0 N 0 78 688
05:22:44 0 1011 0 0 N 0 77.9 679
05:25:46 0 1012 0 0 O 0 77.7 677
05:28:47 -1 1012 0 0 NW 0 77.7 670
05:31:46 -1 1012 0 0 O 0 77.6 667
05:34:48 -1 1011 0 0 NO 0 78.5 668
05:37:47 -1 1012 0 0 O 0 78.9 668
05:40:49 -1 1012 0 0 NO 0 78.8 671
05:43:47 -1 1012 0 0 NO 0 78.6 672
05:46:47 -2 1012 0 0 SO 0 78.8 679
05:49:47 -2 1012 0 0 SO 0 79.1 681
05:52:48 -2 1012 0 0 SO 0 80.1 680
05:55:45 -1 1012 0 0 NO 0 80.9 676
05:58:48 -1 1012 0 0 O 0 81.2 675
06:01:46 -1 1011 0 0 O 0 81.3 676
06:04:46 -1 1012 0 0 O 0 81.1 669
06:07:47 -1 1012 0 0 O 0 80.8 663
06:10:46 -1 1012 0 0 O 0 80.6 668
06:13:47 -1 1013 0 0 SO 0 80.9 677
06:16:46 -1 1012 0 0 O 0 80.9 675
06:19:49 -1 1013 4 0 N 0 80.9 674
06:22:46 -1 1012 7 0 N 0 81.1 670
06:25:49 -1 1012 11 0 O 0 81.7 664
06:28:45 -1 1012 18 0 O 0 81.9 671
06:31:50 -1 1013 27 0 O 0 82 668
06:34:50 -1 1012 38 0 O 0 81.6 670
06:37:46 -1 1013 51 0 O 0 81.3 670
06:40:45 -1 1012 64 0 O 0 81.1 669
06:43:45 -1 1012 77 0 O 0 81 667
06:46:46 -1 1013 90 0 O 0 81 671
06:49:47 -1 1013 102 0 O 0 81.1 676
06:52:47 -1 1012 113 0 O 0 80.5 679
06:55:47 -1 1013 122 0 O 0 81.4 677
06:58:47 -1 1013 130 0 O 0 81.6 671
07:01:47 -2 1013 137 0 O 0 81.9 671
07:04:45 -1 1013 143 0 O 0 82.4 679
07:07:47 -1 1012 149 0 O 0 83 674
07:10:48 -1 1013 153 0 SO 0 82.9 670
07:13:47 -1 1013 156 0 O 0 82.8 661
07:16:49 -1 1013 160 0 NO 0 82.8 661
07:19:46 -1 1013 163 0 O 0 83.3 677
07:22:46 -1 1013 165 0 O 0 83.3 685
07:25:48 -1 1013 168 0 O 0 83 683
07:28:48 -1 1013 170 0 NO 0 82.9 682
07:31:47 -1 1012 172 0 NO 0 82.8 703
07:34:47 -1 1013 173 0 NO 0 82.8 711
07:37:49 -1 1013 174 0 NO 0 83.4 718
07:40:47 -1 1013 176 0 NO 0 83.4 716
07:43:50 -1 1012 177 0 NO 0 83.4 715
07:46:47 -1 1013 178 0 O 0 82.9 711
07:49:47 -1 1013 179 0 O 0 82.6 708
07:52:49 0 1013 180 0 O 0 82.1 706
07:55:49 0 1013 180 0 NO 0 81.8 707
07:58:48 0 1013 181 0 NO 0 81.6 708
08:01:50 0 1013 182 0 NO 0 81.8 712
08:04:46 0 1013 183 0 NO 0 82 711
08:07:47 0 1013 183 0 O 0 81.9 718
08:10:46 0 1013 184 0 NO 0 81.7 723
08:13:50 0 1013 184 0 NW 0 81.3 731
08:16:46 0 1013 184 0 N 0 81.2 735
08:19:46 0 1013 185 0 O 0 81.2 744
08:22:49 1 1013 185 0 SO 0 81.1 743
08:25:49 1 1013 186 0 O 0 81.1 741
08:28:47 1 1013 186 0 N 0 81 741
08:31:49 1 1013 186 0 NO 0 80.5 733
08:34:46 1 1013 187 0 O 0 80 729
08:37:47 2 1013 187 0 N 0 79.4 738
08:40:48 2 1013 187 0 NW 0 79.1 744
08:43:49 2 1013 187 0 O 0 78.9 745
08:46:46 2 1013 188 0 S 0 78.9 741
08:49:50 2 1013 188 0 NO 0 78.3 750
08:52:48 2 1013 188 0 N 0 77.8 759
08:55:47 3 1013 188 0 NO 0 77.2 756
08:58:49 3 1013 189 0 NO 0 76.5 771
09:01:50 3 1013 189 0 NW 0 75.7 621
09:04:47 3 1013 189 0 NO 0 75.2 612
09:07:48 3 1013 190 0 W 0 74.7 743
09:10:47 3 1013 190 0 N 0 74.6 753
09:13:47 4 1013 190 0 NO 0 74.5 749
09:16:46 4 1013 190 0 SO 0 74.3 741
09:19:46 4 1013 190 0 NO 0 73.9 729
09:22:48 4 1013 191 0 SO 0 73.4 726
09:25:46 4 1013 191 0 O 0 72.9 729
09:28:45 4 1013 191 0 S 0 72.8 729
09:31:48 4 1013 191 0 W 0 72.2 729
09:34:46 5 1013 191 0 NO 0 71.8 735
09:37:46 5 1013 192 0 O 0 71.1 735
09:40:49 5 1013 192 0 SO 0 70.9 741
09:43:50 5 1013 192 0 SO 0 70.2 747
09:46:49 5 1013 193 0 O 0 69.6 747
09:49:49 5 1013 193 0 SO 0 69.3 744
09:52:47 5 1013 194 0 S 0 69.3 740
09:55:47 5 1013 195 0 NO 0 69.2 744
09:58:49 5 1013 196 0 SO 0 68.8 746
10:01:48 6 1013 197 0 S 0 68.1 750
10:04:48 6 1013 198 0 O 0 68 756
10:07:48 6 1013 199 0 SO 0 67.4 761
10:10:48 6 1013 200 0 SO 0 66.4 758
10:13:49 6 1013 201 0 O 0 66.1 768
10:16:48 6 1013 201 0 O 0 66 762
10:19:48 6 1013 201 0 SO 0 65.6 761
10:22:46 7 1013 201 0 NO 0 64.9 761
10:25:48 7 1013 201 0 NW 0 63.2 770
10:28:48 7 1013 201 0 NO 0 62.5 774
10:31:49 7 1013 202 0 N 0 62.3 770
10:34:46 7 1013 202 0 NW 0 61.8 772
10:37:48 7 1013 202 0 N 0 60.9 784
10:40:45 7 1013 202 0 O 0 60.5 793
10:43:49 8 1012 202 0 SO 0 60 794
10:46:48 8 1013 203 0 NW 0 59.5 800
10:49:50 8 1013 203 0 SO 0 58.3 803
10:52:47 8 1013 203 0 NO 0 57 811
10:55:48 8 1013 203 0 SO 0 56.1 801
10:58:48 9 1013 204 0 SO 0 55.5 791
11:01:49 9 1013 204 0 O 0 55.6 782
11:04:45 9 1013 204 0 SO 0 55.5 787
11:07:48 9 1013 204 0 O 0 53.5 795
11:10:49 9 1013 204 0 SO 0 52.7 801
11:13:46 9 1013 204 0 N 0 52.7 811
11:16:48 9 1013 204 0 NW 0 52 808
11:19:46 9 1013 205 0 SW 0 51.4 808
11:22:48 9 1013 205 0 O 0 52 810
11:25:46 9 1013 205 0 O 0 51.8 797
11:28:48 9 1012 205 0 O 0 50.8 799
11:31:50 9 1013 205 0 SO 0 50.1 797
11:34:48 9 1013 205 0 SW 0 50.3 805
11:37:47 9 1012 206 0 O 0 50.5 817
11:40:47 10 1012 206 0 NO 0 50.3 820
11:43:51 10 1013 206 0 SW 0 46.9 819
11:46:48 11 1013 207 0 O 0 46.8 808
11:49:48 11 1013 207 0 NW 0 46.6 790
11:52:47 12 1013 207 0 NO 0 45.8 791
11:55:46 12 1013 208 0 S 0 44.2 791
11:58:51 12 1013 208 0 NW 0 42.9 796
12:01:48 12 1013 208 0 SW 0 41.7 799
12:04:48 13 1013 209 0 SO 0 42.5 802
12:07:47 13 1013 209 0 0 39.5 799
12:10:48 13 1013 209 0 SW 0 38.6 805
12:13:48 14 1013 210 0 SO 0 39.8 797
12:16:48 14 1013 210 0 SW 0 38.5 796
12:19:49 14 1013 211 0 N 0 37.8 793
12:22:48 14 1013 211 0 W 0 36.5 789
12:25:48 14 1013 212 0 NO 0 36.6 793
12:28:48 13 1013 212 0 O 0 37 788
12:31:51 14 1013 212 0 NW 0 37.6 793
12:34:50 14 1013 212 0 NO 0 38 787
12:37:45 14 1013 213 0 O 0 38 782
12:40:49 15 1013 213 0 W 0 38 777
12:43:49 14 1013 214 0 SW 0 36.8 777
12:46:48 13 1013 216 0 NO 0 36.7 769
12:49:48 13 1013 218 0 N 0 37.6 753
12:52:48 13 1012 220 0 N 0 39 756
12:55:49 13 1013 222 0 SO 0 38.7 757
12:58:47 13 1013 224 0 NO 0 38 762
13:01:48 14 1012 225 0 S 0 38.5 770
13:04:50 13 1012 225 0 N 0 38.3 770
13:07:49 13 1012 226 0 SO 0 37.9 771
13:10:49 13 1012 226 0 S 0 37.2 779
13:13:49 13 1012 227 0 O 0 37.5 782
13:16:48 13 1012 227 0 0 38 775
13:19:46 13 1013 227 0 N 0 38.1 769
13:22:49 14 1012 228 0 SO 0 36.2 756
13:25:49 14 1013 228 0 SW 0 35.7 745
13:28:47 14 1013 228 0 O 0 35.7 738
13:31:48 13 1012 228 0 SO 0 35.1 745
13:34:49 14 1013 228 0 S 0 35.9 743
13:37:47 14 1012 228 0 O 0 35.9 737
13:40:47 14 1012 228 0 SO 0 34.3 731
13:43:46 13 1012 230 0 O 0 34.4 738
13:46:45 13 1012 233 0 O 0 34.6 740
13:49:48 13 1012 234 0 NO 0 35.4 746
13:52:48 14 1013 235 0 NO 0 36.2 757
13:55:47 14 1012 235 0 O 0 36.2 756
13:58:48 15 1012 242 0 S 0 35.8 759
14:01:47 15 1012 242 0 S 0 34.7 752
14:04:47 14 1012 243 0 NO 0 34.4 759
14:07:48 15 1012 243 0 SO 0 34.2 752
14:10:49 15 1012 243 0 SO 0 35.1 755
14:13:46 15 1012 244 0 SO 0 36.2 763
14:16:49 15 1012 244 0 SO 0 35.3 766
14:19:48 15 1012 244 0 SO 0 36.2 767
14:22:46 15 1012 244 0 N 0 36 767
14:25:50 15 1012 245 0 SW 0 35.6 772
14:28:46 15 1012 245 0 O 0 35.4 770
14:31:48 16 1012 245 0 W 0 35.6 776
14:34:47 15 1011 245 0 NO 0 36.2 782
14:37:49 15 1012 245 0 0 35.8 782
14:40:47 14 1012 245 0 NO 0 36.1 779
14:43:48 14 1011 245 0 S 0 37.8 779
14:46:46 14 1011 245 0 SW 0 38.2 788
14:49:48 14 1012 246 0 SW 0 37.7 794
14:52:47 14 1011 246 0 S 0 38.5 797
14:55:47 14 1012 246 0 O 0 38.8 796
14:58:48 14 1012 246 0 SO 0 39.8 794
15:01:47 14 1011 246 0 O 0 40 784
15:04:49 14 1012 246 0 SO 0 40.7 787
15:07:47 14 1011 246 0 NO 0 40.7 787
15:10:46 14 1012 246 0 W 0 41.2 785
15:13:46 13 1012 246 0 O 0 41.9 787
15:16:46 13 1012 246 0 N 0 41.8 785
15:19:48 13 1012 246 0 NW 0 42.5 770
15:22:48 13 1012 246 0 NO 0 43.7 772
15:25:45 13 1011 246 0 O 0 43.4 769
15:28:49 13 1012 246 0 W 0 43.2 779
15:31:48 13 1012 246 0 SO 0 43.4 781
15:34:46 13 1011 246 0 N 0 43.8 779
15:37:46 13 1011 244 0 O 0 45.3 773
15:40:48 12 1011 243 0 S 0 45.2 764
15:43:47 12 1011 244 0 S 0 46 766
15:46:46 12 1012 245 0 0 46.7 772
15:49:46 12 1011 242 0 N 0 47.4 773
15:52:47 12 1011 233 0 O 0 48.4 772
15:55:48 12 1011 236 0 SO 0 48.8 767
15:58:48 12 1011 227 0 SO 0 48.9 770
16:01:47 12 1012 237 0 O 0 48.6 767
16:04:49 12 1011 231 0 SW 0 48.6 766
16:07:47 12 1011 229 0 S 0 48.7 766
16:10:50 12 1011 224 0 SW 0 47.9 769
16:13:49 12 1011 233 0 NO 0 47.8 771
16:16:50 12 1011 230 0 SO 0 48.2 764
16:19:47 12 1011 225 0 N 0 48.5 768
16:22:51 12 1010 223 0 SO 0 48.6 772
16:25:48 12 1011 227 0 S 0 48.8 768
16:28:47 12 1010 232 0 O 0 49 767
16:31:47 12 1011 235 0 NO 0 48.6 764
16:34:49 12 1010 232 0 S 0 48.6 762
16:37:47 11 1011 170 0 NO 0 48.8 577
16:40:48 11 1011 168 0 SO 0 48.9 422
16:43:48 11 1011 167 0 SO 0 48.9 404
16:46:50 11 1011 223 0 SW 0 49.3 410
16:49:49 11 1010 219 0 S 0 49.4 439
16:52:49 11 1010 220 0 NO 0 49.4 501
16:55:48 11 1011 221 0 S 0 49.9 518
16:58:46 10 1010 222 0 S 0 50.4 519
17:01:47 10 1011 216 2 SO 0 50.7 515
17:04:51 10 1011 220 6 NW 0 51.7 486
17:07:49 10 1010 214 11 SW 0 52 456
17:10:46 10 1011 218 5 O 0 52.4 451
17:13:47 10 1011 208 3 O 0 52.8 460
17:16:49 10 1010 206 1 NW 0 53.4 476
17:19:47 10 1011 207 4 NW 0 53.6 474
17:22:47 9 1010 204 2 S 0 54.1 480
17:25:48 9 1010 201 3 S 0 54.4 492
17:28:47 9 1011 198 4 N 0 55 498
17:31:45 9 1010 196 2 O 0 55.7 501
17:34:49 9 1010 194 1 SO 0 56.2 492
17:37:48 9 1011 191 6 NO 0 56.8 498
17:40:46 9 1011 188 7 S 0 56.9 494
17:43:48 9 1010 184 7 NO 0 56.9 506
17:46:48 9 1011 180 2 SO 0 57.2 501
17:49:47 8 1011 175 9 NO 0 57.3 506
17:52:48 8 1011 164 2 SW 0 57.8 500
17:55:50 8 1010 158 4 NW 0 58.1 506
17:58:49 8 1011 153 4 NO 0 58.5 507
18:01:49 8 1010 146 4 SO 0 58.5 513
18:04:49 8 1011 136 7 O 0 58.7 521
18:07:49 8 1011 124 4 NO 0 58.8 533
18:10:48 8 1011 111 6 NO 0 59.1 541
18:13:45 8 1011 98 3 SW 0 59.4 548
18:16:45 8 1011 83 2 NO 0 59.6 553
18:19:47 7 1011 68 4 SO 0 60 553
18:22:46 7 1011 54 4 NW 0 60.1 553
18:25:47 7 1012 40 4 SO 0 60.5 556
18:28:49 7 1011 28 3 SO 0 60.6 559
18:31:46 7 1011 18 2 O 0 60.9 559
18:34:45 7 1011 11 2 O 0 61.1 559
18:37:45 7 1011 7 3 NO 0 61.6 559
18:40:50 7 1011 4 0 O 0 61.9 562
18:43:47 7 1011 0 1 O 0 62.8 562
18:46:45 6 1011 0 3 O 0 63.3 565
18:49:47 6 1012 0 1 NO 0 64.2 577
18:52:46 6 1011 0 1 O 0 65.8 583
18:55:46 6 1011 0 4 SO 0 66.3 579
18:58:45 6 1011 0 0 W 0 66.5 580
19:01:44 6 1011 0 4 O 0 67.2 577
19:04:46 6 1011 0 1 O 0 68 577
19:07:48 6 1010 0 4 SO 0 68.1 582
19:10:45 6 1011 0 1 0 68.8 579
19:13:46 6 1011 0 3 N 0 69.5 551
19:16:47 6 1011 0 3 N 0 69.7 548
19:19:46 6 1011 0 1 O 0 69.8 571
19:22:45 6 1012 0 4 N 0 70 583
19:25:48 6 1012 0 2 SO 0 70 583
19:28:45 6 1011 0 3 S 0 70.6 585
19:31:46 6 1011 0 4 O 0 70.4 586
19:34:46 6 1011 0 9 NO 0 70.2 585
19:37:49 6 1011 0 4 NO 0 70.1 588
19:40:45 6 1011 0 3 O 0 70.1 586
19:43:47 5 1012 17 5 O 0 70.2 585
19:46:46 5 1012 17 1 SW 0 70.1 591
19:49:45 5 1012 16 6 O 0 70.3 603
19:52:50 5 1012 16 1 SO 0 70.3 606
19:55:47 5 1011 16 1 O 0 70.3 623
19:58:46 5 1011 16 3 N 0 70.2 641
20:01:48 5 1011 15 6 NO 0 70.1 656
20:04:48 5 1012 15 2 S 0 70.3 671
20:07:47 5 1011 16 2 SO 0 70.4 748
20:10:46 5 1012 16 3 SO 0 70.6 743
20:13:45 5 1012 0 1 N 0 70.5 755
20:16:45 5 1012 0 1 O 0 70.2 767
20:19:46 5 1011 0 10 SO 0 70.1 776
20:22:46 5 1011 0 9 W 0 69.8 776
20:25:45 5 1011 0 3 O 0 69.8 773
20:28:44 5 1012 0 5 0 69.5 802
20:31:47 5 1012 0 5 N 0 69.4 815
20:34:45 5 1012 0 9 O 0 69.3 826
20:37:46 4 1011 0 5 S 0 69 795
20:40:45 4 1011 0 4 SO 0 68.9 791
20:43:48 4 1011 0 11 O 0 68.6 787
20:46:45 4 1011 0 3 NO 0 68.5 797
20:49:44 4 1011 0 3 0 68.5 792
20:52:47 4 1011 0 2 N 0 68.4 792
20:55:48 4 1011 0 5 NO 0 68.2 793
20:58:46 4 1011 0 3 O 0 68 802
21:01:50 4 1012 0 3 NW 0 67.8 806
21:04:45 4 1011 0 3 0 67.8 803
21:07:47 4 1011 0 5 N 0 68 805
21:10:46 4 1011 0 4 S 0 68.2 808
21:13:48 4 1012 0 9 SO 0 68.1 806
21:16:46 4 1011 0 6 SO 0 68 802
21:19:46 4 1011 0 5 0 67.9 793
21:22:45 4 1011 0 5 O 0 67.9 794
21:25:46 3 1011 0 4 O 0 67.8 793
21:28:46 3 1011 0 2 NO 0 67.7 796
21:31:49 3 1011 0 2 NO 0 67.3 799
21:34:48 3 1011 0 8 SW 0 67 797
21:37:45 3 1011 0 1 S 0 67 790
21:40:46 3 1010 0 2 SO 0 66.3 780
21:43:45 3 1011 0 3 O 0 66.3 787
21:46:45 3 1010 0 5 N 0 66.4 787
21:49:45 3 1010 0 2 NO 0 66.4 794
21:52:46 3 1011 0 3 0 66 790
21:55:46 3 1011 0 4 SO 0 65.7 789
21:58:47 3 1010 0 2 SO 0 65.4 790
22:01:49 3 1011 0 8 SW 0 65 791
22:04:48 3 1010 0 5 O 0 65 796
22:07:48 3 1010 0 4 SO 0 64.4 793
22:10:47 3 1011 0 6 S 0 63.9 788
22:13:45 3 1011 0 6 S 0 63.7 781
22:16:50 3 1011 0 2 SO 0 63.5 785
22:19:45 3 1011 0 7 S 0 63.1 782
22:22:47 3 1011 0 11 O 0 62.6 786
22:25:49 3 1011 0 10 SO 0 62.1 787
22:28:47 3 1010 0 1 NW 0 62 785
22:31:46 3 1010 0 5 SO 0 61.9 776
22:34:50 2 1010 0 2 NW 0 61.9 779
22:37:47 2 1010 0 6 NW 0 62 781
22:40:47 2 1011 0 1 O 0 62.1 775
22:43:47 2 1010 0 10 O 0 61.9 770
22:46:48 2 1010 0 3 O 0 61.8 769
22:49:47 2 1010 0 2 S 0 61.8 778
22:52:46 2 1010 0 4 NO 0 61.9 778
22:55:48 2 1010 0 6 S 0 62 772
22:58:46 2 1010 0 2 N 0 61.9 769
23:01:52 2 1011 0 5 SW 0 61.8 779
23:04:49 2 1010 0 5 O 0 61.8 778
23:07:46 2 1010 0 4 NO 0 61.9 778
23:10:44 2 1010 0 6 S 0 62 772
23:13:49 2 1010 0 1 NW 0 62 776
23:16:45 2 1010 0 5 O 0 62.1 772
23:19:47 2 1010 0 3 O 0 62.1 773
23:22:47 2 1010 0 4 SO 0 62 766
23:25:45 2 1010 0 1 O 0 62.3 764
23:28:46 2 1010 0 5 O 0 62.4 765
23:31:46 1 1011 0 2 O 0 62.8 767
23:34:44 1 1010 0 2 SW 0 63 763
23:37:47 1 1010 0 5 O 0 63.2 761
23:40:45 1 1010 0 4 N 0 63.3 767
23:43:45 1 1010 0 0 N 0 63.6 764
23:46:46 1 1010 0 5 S 0 63.8 768
23:49:46 1 1010 0 0 NO 0 64.4 759
23:52:47 1 1010 0 1 SO 0 64.8 758
23:55:45 1 1010 0 1 NO 0 64.7 759
23:58:46 1 1010 0 1 W 0 65 755

Letzte Änderung : 22-Jul-2022
Copyright Jens Köhler, Wolfsburg, Obere Dorfstraße 10d